Language: 


Des rapports , des résumés tant et plus, au choix de chacun....


Données Historiques de Météogheer
Journalier Rapport pour Février 28, 2018 Unitée:  Impériale    Métrique   Les deux
Suivant Jour »
Journalier Hebdomadaire Mensuel Annuel Sur mesure
  Max: Min: Moyenne:
Température: 31.3 °F 19 °F 24.6 °F
Point de rosée: 12.2 °F 3.2 °F 7.5 °F
Humidité: 73% 32% 52%
Vent: 21mph 0mph 8.6mph
Rafales: 24.6mph - -
Vent- - ENE
Pression: 30.1 in 0 in -
Pluie: 0 in    
Historical Graphs
 
 
Données tabulaires pour Février 28, 2018
Heure Température Point de rosée Pression Vent Vent Rafales Humidité Pluie Taux (Horaire) Conditions
00:03 22.3 °F 12.2 °F 30.1 in NE 1.1 mph 4 mph 65% 0 in
00:08 22.3 °F 12.2 °F 30.1 in Calm   4 mph 65% 0 in
00:13 22.1 °F 10.4 °F 30.1 in NE 2.5 mph 4.5 mph 65% 0 in
00:18 22.1 °F 10.4 °F 30 in ENE 4 mph 4.7 mph 65% 0 in
00:23 21.9 °F 10.4 °F 30 in NNE 3.8 mph 4.7 mph 65% 0 in
00:28 21.9 °F 10.4 °F 30 in NE 3.8 mph 5.4 mph 66% 0 in
00:33 21.7 °F 10.4 °F 30 in Calm   5.4 mph 66% 0 in
00:38 21.6 °F 10.4 °F 30 in NE 3.1 mph 4.9 mph 66% 0 in
00:43 21.6 °F 10.4 °F 30 in Calm   7.2 mph 66% 0 in
00:48 21.6 °F 10.4 °F 30 in ENE 4 mph 7.2 mph 67% 0 in
00:53 21.6 °F 10.4 °F 30 in ENE 4.3 mph 5.6 mph 67% 0 in
00:58 21.7 °F 12.2 °F 30 in ENE 2.5 mph 5.4 mph 67% 0 in
01:03 21.7 °F 12.2 °F 30 in ENE 3.4 mph 4.9 mph 67% 0 in
01:08 21.6 °F 10.4 °F 30 in East 2.9 mph 4.3 mph 67% 0 in
01:28 21.4 °F 10.4 °F 0 in ENE 3.8 mph 3.8 mph 66% 0 in
01:33 21.4 °F 10.4 °F 30 in Calm   4.7 mph 66% 0 in
01:38 21.6 °F 10.4 °F 30 in ENE 3.6 mph 5.8 mph 66% 0 in
01:43 21.4 °F 10.4 °F 30 in NE 3.6 mph 5.8 mph 66% 0 in
01:48 21.4 °F 10.4 °F 30 in ENE 2.2 mph 4.9 mph 66% 0 in
01:53 21.4 °F 10.4 °F 30 in Calm   5.4 mph 66% 0 in
01:58 21.2 °F 10.4 °F 30 in Calm   5.4 mph 67% 0 in
02:03 21.2 °F 10.4 °F 30 in NE 4 mph 4.3 mph 67% 0 in
02:09 21.2 °F 10.4 °F 30 in NE 4 mph 4.9 mph 67% 0 in
02:14 21.2 °F 10.4 °F 30 in NE 5.4 mph 6 mph 67% 0 in
02:19 21.2 °F 10.4 °F 30 in NE 4 mph 6 mph 68% 0 in
02:24 21 °F 10.4 °F 30 in NE 3.1 mph 5.6 mph 68% 0 in
02:29 21 °F 10.4 °F 30 in NE 4.3 mph 5.6 mph 68% 0 in
02:34 20.8 °F 10.4 °F 30 in Calm   4.7 mph 68% 0 in
02:39 20.8 °F 10.4 °F 30 in Calm   4 mph 68% 0 in
02:44 20.8 °F 10.4 °F 30 in ENE 3.6 mph 4 mph 68% 0 in
02:49 20.8 °F 10.4 °F 30 in Calm   4 mph 68% 0 in
02:54 20.7 °F 10.4 °F 30 in Calm   4 mph 67% 0 in
02:59 20.7 °F 10.4 °F 30 in ENE 3.1 mph 3.4 mph 67% 0 in
03:04 20.5 °F 10.4 °F 30 in ENE 2.9 mph 3.8 mph 67% 0 in
03:09 20.3 °F 10.4 °F 30 in Calm   4 mph 67% 0 in
03:14 20.3 °F 10.4 °F 30.1 in NE 2.2 mph 4 mph 67% 0 in
03:19 20.3 °F 10.4 °F 30.1 in ENE 3.8 mph 4.3 mph 68% 0 in
03:24 20.1 °F 10.4 °F 30.1 in ENE 3.1 mph 4.3 mph 68% 0 in
03:29 19.9 °F 10.4 °F 30 in ENE 2.9 mph 4.3 mph 68% 0 in
03:34 19.9 °F 10.4 °F 30 in ENE 4 mph 4 mph 68% 0 in
03:39 19.9 °F 10.4 °F 30 in Calm   4 mph 69% 0 in
03:44 19.9 °F 10.4 °F 30 in NE 3.4 mph 4 mph 69% 0 in
03:49 19.9 °F 10.4 °F 30 in NE 3.4 mph 4 mph 69% 0 in
03:54 19.9 °F 10.4 °F 30 in Calm   4 mph 69% 0 in
04:00 19.9 °F 10.4 °F 30 in NE 2.5 mph 4 mph 69% 0 in
04:05 19.9 °F 10.4 °F 30 in East 3.4 mph 6.5 mph 69% 0 in
04:10 19.8 °F 10.4 °F 30 in Calm   6.5 mph 69% 0 in
04:15 19.8 °F 10.4 °F 30 in East 3.4 mph 4.3 mph 69% 0 in
04:20 19.8 °F 10.4 °F 30 in Calm   4.3 mph 69% 0 in
04:25 19.8 °F 10.4 °F 30 in ENE 2.7 mph 3.4 mph 69% 0 in
04:30 19.8 °F 10.4 °F 30 in Calm   2.9 mph 69% 0 in
04:35 19.8 °F 10.4 °F 30 in Calm   2.9 mph 69% 0 in
04:40 19.8 °F 10.4 °F 30 in Calm   2 mph 69% 0 in
04:45 19.6 °F 10.4 °F 30 in Calm   3.1 mph 69% 0 in
04:50 19.6 °F 10.4 °F 30 in NE 1.3 mph 3.8 mph 69% 0 in
04:55 19.6 °F 10.4 °F 30 in Calm   4 mph 69% 0 in
05:00 19.4 °F 10.4 °F 30 in Calm   4 mph 70% 0 in
05:05 19.4 °F 10.4 °F 30 in East 3.4 mph 5.4 mph 70% 0 in
05:10 19.2 °F 10.4 °F 30 in East 3.4 mph 5.4 mph 70% 0 in
05:15 19.2 °F 10.4 °F 30 in Calm   4.9 mph 70% 0 in
05:20 19.2 °F 10.4 °F 30 in Calm   4.9 mph 70% 0 in
05:25 19.2 °F 10.4 °F 30 in NE 2.5 mph 4.7 mph 70% 0 in
05:30 19 °F 10.4 °F 30 in ENE 5.6 mph 5.6 mph 71% 0 in
05:35 19 °F 10.4 °F 30 in ENE 4.9 mph 6.3 mph 71% 0 in
05:40 19 °F 10.4 °F 30 in ENE 3.6 mph 6.3 mph 72% 0 in
05:45 19 °F 10.4 °F 30 in ENE 4 mph 6 mph 72% 0 in
05:50 19 °F 10.4 °F 30 in ENE 4.3 mph 5.6 mph 72% 0 in
05:55 19 °F 10.4 °F 30 in Calm   5.4 mph 72% 0 in
06:01 19 °F 10.4 °F 30 in ENE 3.4 mph 5.4 mph 71% 0 in
06:06 19 °F 10.4 °F 30 in ENE 3.8 mph 6 mph 72% 0 in
06:11 19.2 °F 10.4 °F 30 in ENE 4.9 mph 7.2 mph 72% 0 in
06:16 19.4 °F 10.4 °F 30 in NE 5.4 mph 7.2 mph 72% 0 in
06:21 19.6 °F 10.4 °F 30 in NE 5.8 mph 6 mph 72% 0 in
06:26 19.6 °F 10.4 °F 30 in ENE 5.4 mph 6 mph 72% 0 in
06:31 19.8 °F 10.4 °F 30 in East 6.5 mph 6.5 mph 71% 0 in
06:36 19.8 °F 10.4 °F 30 in NE 4.3 mph 6.5 mph 71% 0 in
06:41 19.8 °F 10.4 °F 30 in NE 5.8 mph 8.1 mph 71% 0 in
06:46 19.8 °F 10.4 °F 30 in ENE 5.4 mph 8.1 mph 71% 0 in
06:51 19.6 °F 10.4 °F 30 in ENE 4.3 mph 6 mph 71% 0 in
06:56 19.6 °F 10.4 °F 30 in ENE 4 mph 6 mph 71% 0 in
07:01 19.6 °F 10.4 °F 30 in East 5.4 mph 6.3 mph 71% 0 in
07:06 19.4 °F 10.4 °F 30 in ENE 3.8 mph 6.3 mph 71% 0 in
07:11 19.4 °F 10.4 °F 30 in ENE 4.3 mph 6.3 mph 71% 0 in
07:16 19.2 °F 10.4 °F 30 in ENE 4.9 mph 6.3 mph 71% 0 in
07:21 19.2 °F 10.4 °F 30 in East 5.6 mph 5.6 mph 71% 0 in
07:26 19 °F 10.4 °F 30 in ENE 4.5 mph 7.8 mph 72% 0 in
07:32 19 °F 10.4 °F 30 in ENE 3.8 mph 7.8 mph 72% 0 in
07:37 19 °F 10.4 °F 30 in East 6.3 mph 6.3 mph 72% 0 in
07:42 19 °F 10.4 °F 30 in NE 4.9 mph 6.5 mph 72% 0 in
07:47 19 °F 10.4 °F 30 in Calm   6.5 mph 72% 0 in
07:52 19 °F 10.4 °F 30 in ENE 3.4 mph 5.8 mph 72% 0 in
07:57 19.2 °F 10.4 °F 30 in East 2.9 mph 6.3 mph 72% 0 in
08:02 19.4 °F 10.4 °F 30 in ENE 6.3 mph 7.4 mph 73% 0 in
08:07 19.6 °F 10.4 °F 30 in NE 6.3 mph 7.4 mph 73% 0 in
08:12 19.8 °F 10.4 °F 30 in East 6.3 mph 7.2 mph 73% 0 in
08:17 20.1 °F 12.2 °F 30 in NE 6.3 mph 7.8 mph 72% 0 in
08:22 20.3 °F 12.2 °F 30 in ENE 6.9 mph 9.6 mph 72% 0 in
08:27 20.7 °F 12.2 °F 30 in ENE 4.9 mph 11.2 mph 71% 0 in
08:32 20.8 °F 12.2 °F 30 in ENE 8.5 mph 11.2 mph 70% 0 in
08:37 21.2 °F 10.4 °F 30 in ENE 7.4 mph 9.6 mph 69% 0 in
08:42 21.4 °F 10.4 °F 30 in East 10.7 mph 11.2 mph 67% 0 in
08:47 21.6 °F 10.4 °F 30 in East 6.3 mph 11.2 mph 66% 0 in
08:52 21.9 °F 10.4 °F 30 in ENE 1.1 mph 11 mph 65% 0 in
08:57 22.1 °F 10.4 °F 30 in ENE 7.6 mph 10.7 mph 64% 0 in
09:02 22.5 °F 10.4 °F 30 in ENE 7.6 mph 10.7 mph 63% 0 in
09:07 22.6 °F 10.4 °F 30 in ENE 6.3 mph 10.5 mph 61% 0 in
09:12 22.8 °F 10.4 °F 30 in East 7.4 mph 12.5 mph 60% 0 in
09:17 23 °F 8.6 °F 30 in SSE 7.2 mph 13.2 mph 58% 0 in
09:22 23.2 °F 10.4 °F 30 in East 6.3 mph 13.2 mph 58% 0 in
09:27 23.4 °F 8.6 °F 30 in NE 9.8 mph 12.8 mph 56% 0 in
09:32 23.5 °F 8.6 °F 30 in East 7.8 mph 12.8 mph 56% 0 in
09:37 23.7 °F 8.6 °F 30 in East 6.3 mph 12.8 mph 55% 0 in
09:42 23.9 °F 8.6 °F 30 in NE 7.8 mph 11.9 mph 54% 0 in
09:47 23.9 °F 8.6 °F 30 in East 4.9 mph 15.4 mph 54% 0 in
09:52 24.1 °F 8.6 °F 30 in East 10.1 mph 15.4 mph 54% 0 in
09:58 24.4 °F 10.4 °F 30 in East 9.4 mph 13 mph 54% 0 in
10:03 24.4 °F 10.4 °F 30 in East 10.7 mph 13 mph 54% 0 in
10:08 24.6 °F 8.6 °F 30 in ESE 7.6 mph 14.8 mph 52% 0 in
10:13 24.8 °F 8.6 °F 30 in East 12.8 mph 14.8 mph 52% 0 in
10:18 25 °F 8.6 °F 30 in East 6.5 mph 13 mph 52% 0 in
10:23 25.3 °F 10.4 °F 30 in East 9.8 mph 14.8 mph 52% 0 in
10:28 25.3 °F 8.6 °F 30 in East 11.2 mph 14.8 mph 51% 0 in
10:33 25.7 °F 8.6 °F 30 in NE 7.4 mph 12.1 mph 51% 0 in
10:38 26.1 °F 10.4 °F 30 in ENE 7.6 mph 13 mph 51% 0 in
10:43 26.1 °F 8.6 °F 30 in East 12.8 mph 14.3 mph 49% 0 in
10:48 26.4 °F 8.6 °F 30 in NE 10.1 mph 14.3 mph 49% 0 in
10:53 26.4 °F 8.6 °F 30 in ESE 12.1 mph 16.1 mph 47% 0 in
10:58 26.8 °F 8.6 °F 30 in ESE 12.8 mph 16.1 mph 47% 0 in
11:03 27 °F 8.6 °F 30 in NE 10.5 mph 15.2 mph 46% 0 in
11:08 27.1 °F 8.6 °F 30 in East 9.8 mph 12.8 mph 46% 0 in
11:13 27.5 °F 8.6 °F 30 in East 7.6 mph 13.9 mph 46% 0 in
11:18 27.7 °F 8.6 °F 30 in ENE 10.1 mph 14.3 mph 45% 0 in
11:23 27.7 °F 8.6 °F 30 in East 10.5 mph 14.3 mph 45% 0 in
11:28 27.9 °F 8.6 °F 30 in East 13.2 mph 19.5 mph 45% 0 in
11:33 27.9 °F 8.6 °F 30 in ESE 10.7 mph 19.5 mph 45% 0 in
11:38 28.2 °F 8.6 °F 30 in ENE 15.2 mph 15.4 mph 45% 0 in
11:43 28.2 °F 8.6 °F 30 in ENE 12.1 mph 17.7 mph 44% 0 in
11:48 28.6 °F 8.6 °F 30 in ENE 10.3 mph 17.7 mph 44% 0 in
11:54 28.9 °F 8.6 °F 30 in ESE 12.3 mph 16.6 mph 43% 0 in
11:59 28.9 °F 8.6 °F 30 in ENE 8.1 mph 17.7 mph 43% 0 in
12:04 29.1 °F 8.6 °F 30 in NNE 17.9 mph 17.9 mph 43% 0 in
12:09 29.1 °F 8.6 °F 30 in East 14.1 mph 24.2 mph 42% 0 in
12:14 29.5 °F 8.6 °F 30 in ESE 10.7 mph 24.2 mph 42% 0 in
12:19 29.5 °F 8.6 °F 30 in East 7.8 mph 18.6 mph 41% 0 in
12:24 29.5 °F 8.6 °F 30 in ENE 17.7 mph 18.6 mph 41% 0 in
12:29 29.5 °F 8.6 °F 30 in East 11 mph 17.7 mph 41% 0 in
12:34 29.5 °F 8.6 °F 30 in ENE 13.2 mph 18.1 mph 41% 0 in
12:39 29.5 °F 8.6 °F 30 in ENE 11 mph 18.1 mph 41% 0 in
12:44 29.3 °F 6.8 °F 30 in East 15.4 mph 23 mph 41% 0 in
12:49 29.5 °F 8.6 °F 30 in NE 15.2 mph 23 mph 41% 0 in
12:54 29.7 °F 8.6 °F 30 in ENE 9.4 mph 20.8 mph 41% 0 in
12:59 29.7 °F 6.8 °F 30 in East 14.3 mph 20.1 mph 40% 0 in
13:04 29.8 °F 6.8 °F 30 in East 19.5 mph 20.1 mph 40% 0 in
13:09 29.7 °F 6.8 °F 30 in ESE 12.8 mph 19.5 mph 39% 0 in
13:15 29.8 °F 6.8 °F 29.9 in ENE 10.1 mph 22.4 mph 39% 0 in
13:20 30 °F 6.8 °F 29.9 in ENE 13.4 mph 22.4 mph 38% 0 in
13:25 30.2 °F 6.8 °F 29.9 in SE 12.8 mph 22.4 mph 38% 0 in
13:30 30.6 °F 6.8 °F 29.9 in ENE 12.3 mph 19.2 mph 37% 0 in
13:35 30.6 °F 5 °F 29.9 in ENE 14.5 mph 24.2 mph 36% 0 in
13:40 30.7 °F 6.8 °F 29.9 in East 8.1 mph 24.2 mph 37% 0 in
13:45 31.1 °F 6.8 °F 30 in ENE 17.9 mph 18.1 mph 37% 0 in
13:50 31.1 °F 6.8 °F 30 in NE 8.1 mph 19.9 mph 36% 0 in
13:55 31.3 °F 6.8 °F 30 in ENE 8.7 mph 19.9 mph 36% 0 in
14:00 31.1 °F 5 °F 30 in East 12.5 mph 17.2 mph 35% 0 in
14:05 31.1 °F 5 °F 30 in ENE 15.4 mph 19.9 mph 34% 0 in
14:10 30.9 °F 5 °F 30 in East 15.4 mph 19.9 mph 34% 0 in
14:15 30.9 °F 5 °F 30 in ENE 13 mph 19.9 mph 34% 0 in
14:20 30.7 °F 5 °F 30 in ESE 7.8 mph 19.5 mph 34% 0 in
14:25 31.1 °F 5 °F 30 in East 15.2 mph 19.5 mph 34% 0 in
14:30 31.1 °F 5 °F 29.9 in ENE 13 mph 19.7 mph 34% 0 in
14:35 31.3 °F 5 °F 29.9 in East 13 mph 19.7 mph 34% 0 in
14:40 31.1 °F 5 °F 29.9 in ENE 13.2 mph 21.5 mph 33% 0 in
14:45 31.3 °F 5 °F 29.9 in ESE 13.2 mph 21.5 mph 34% 0 in
14:50 31.1 °F 5 °F 29.9 in East 16.3 mph 20.8 mph 33% 0 in
14:55 31.3 °F 5 °F 29.9 in NE 9.8 mph 20.8 mph 34% 0 in
15:01 31.1 °F 5 °F 29.9 in ESE 17.7 mph 24.6 mph 33% 0 in
15:06 31.3 °F 5 °F 29.9 in ESE 11 mph 24.6 mph 34% 0 in
15:11 31.1 °F 5 °F 29.9 in ESE 21 mph 21 mph 33% 0 in
15:16 31.1 °F 5 °F 29.9 in East 13 mph 22.1 mph 33% 0 in
15:21 31.3 °F 5 °F 29.9 in East 8.5 mph 22.1 mph 33% 0 in
15:26 31.3 °F 5 °F 29.9 in East 8.1 mph 20.1 mph 33% 0 in
15:31 31.1 °F 3.2 °F 29.9 in East 15.9 mph 24.2 mph 32% 0 in
15:36 31.1 °F 5 °F 29.9 in East 10.1 mph 24.2 mph 33% 0 in
15:41 31.1 °F 5 °F 29.9 in East 15.2 mph 23 mph 33% 0 in
15:46 31.1 °F 5 °F 29.9 in ENE 12.8 mph 19.7 mph 33% 0 in
15:51 31.1 °F 5 °F 29.9 in ENE 17.7 mph 17.9 mph 33% 0 in
15:56 31.1 °F 5 °F 29.9 in ENE 15.4 mph 19.5 mph 34% 0 in
16:01 31.1 °F 5 °F 29.9 in ENE 14.8 mph 19.5 mph 34% 0 in
16:06 31.1 °F 5 °F 29.9 in East 12.1 mph 22.6 mph 34% 0 in
16:11 31.3 °F 5 °F 29.9 in NE 8.7 mph 22.6 mph 34% 0 in
16:16 31.1 °F 5 °F 29.9 in East 8.7 mph 19.5 mph 34% 0 in
16:21 30.7 °F 5 °F 29.9 in ENE 14.8 mph 19.5 mph 33% 0 in
16:26 30.6 °F 5 °F 29.9 in East 17.4 mph 17.4 mph 34% 0 in
16:31 30.4 °F 5 °F 29.9 in East 10.5 mph 19.5 mph 34% 0 in
16:36 30.4 °F 5 °F 29.9 in NE 13.9 mph 19.5 mph 34% 0 in
16:41 30.2 °F 5 °F 29.9 in East 10.3 mph 18.6 mph 35% 0 in
16:46 30.2 °F 5 °F 29.9 in ENE 13 mph 18.6 mph 35% 0 in
16:51 30 °F 5 °F 29.9 in NNE 12.5 mph 19.7 mph 34% 0 in
16:56 29.7 °F 3.2 °F 29.9 in ENE 11.9 mph 19.7 mph 34% 0 in
17:01 29.5 °F 3.2 °F 29.9 in ENE 15.2 mph 19.7 mph 34% 0 in
17:07 29.5 °F 3.2 °F 29.9 in East 10.3 mph 17.2 mph 34% 0 in
17:12 29.5 °F 5 °F 29.9 in East 14.8 mph 17.2 mph 35% 0 in
17:17 29.3 °F 3.2 °F 29.9 in NE 13.9 mph 17.4 mph 35% 0 in
17:22 28.9 °F 3.2 °F 29.9 in East 15.2 mph 19.5 mph 34% 0 in
17:27 28.6 °F 3.2 °F 29.9 in NE 16.1 mph 20.4 mph 34% 0 in
17:32 28.4 °F 3.2 °F 29.9 in ENE 11 mph 20.4 mph 34% 0 in
17:40 28.2 °F 3.2 °F 29.9 in ENE 12.8 mph 17 mph 35% 0 in
17:45 28.2 °F 3.2 °F 29.9 in NE 11 mph 17 mph 36% 0 in
17:50 28.2 °F 3.2 °F 29.9 in ENE 17.4 mph 19.2 mph 36% 0 in
17:55 28 °F 3.2 °F 29.9 in East 10.3 mph 19.2 mph 36% 0 in
18:00 27.9 °F 3.2 °F 29.9 in ENE 11 mph 15.4 mph 36% 0 in
18:05 27.9 °F 3.2 °F 29.9 in ENE 14.8 mph 15.4 mph 37% 0 in
18:10 27.7 °F 3.2 °F 29.9 in East 15.7 mph 17 mph 37% 0 in
18:15 27.5 °F 3.2 °F 29.8 in East 14.5 mph 17 mph 37% 0 in
18:20 27.3 °F 3.2 °F 29.8 in East 13.2 mph 16.8 mph 38% 0 in
18:25 27.1 °F 3.2 °F 29.8 in ENE 11 mph 14.5 mph 38% 0 in
18:30 27 °F 3.2 °F 29.9 in ENE 11.9 mph 19 mph 38% 0 in
18:35 26.8 °F 3.2 °F 29.9 in NE 8.1 mph 19 mph 38% 0 in
18:40 26.8 °F 3.2 °F 29.9 in East 13.2 mph 17.7 mph 38% 0 in
18:45 26.6 °F 5 °F 29.9 in ENE 8.5 mph 17.7 mph 39% 0 in
18:50 26.4 °F 5 °F 29.9 in NE 17.2 mph 19.9 mph 39% 0 in
18:55 26.4 °F 5 °F 29.9 in ENE 10.3 mph 19.9 mph 39% 0 in
19:00 26.2 °F 3.2 °F 29.9 in East 10.7 mph 19.2 mph 39% 0 in
19:05 26.2 °F 3.2 °F 29.9 in East 14.5 mph 16.3 mph 39% 0 in
19:10 26.2 °F 3.2 °F 29.9 in ENE 13.2 mph 19.2 mph 39% 0 in
19:15 26.1 °F 3.2 °F 29.9 in East 17.2 mph 19.7 mph 39% 0 in
19:21 26.1 °F 3.2 °F 29.9 in ENE 12.8 mph 19.7 mph 39% 0 in
19:26 26.1 °F 3.2 °F 29.9 in East 12.5 mph 19.9 mph 39% 0 in
19:31 26.1 °F 3.2 °F 29.9 in ENE 8.1 mph 19.9 mph 39% 0 in
19:36 26.1 °F 3.2 °F 29.9 in East 10.3 mph 21.5 mph 39% 0 in
19:41 25.9 °F 3.2 °F 29.9 in East 13 mph 22.6 mph 39% 0 in
19:46 25.9 °F 3.2 °F 29.9 in East 15.2 mph 22.6 mph 39% 0 in
19:51 25.9 °F 5 °F 29.9 in ENE 10.7 mph 17.7 mph 40% 0 in
19:56 25.7 °F 3.2 °F 29.9 in East 17 mph 17.9 mph 40% 0 in
20:01 25.7 °F 5 °F 29.9 in East 19.5 mph 19.5 mph 41% 0 in
20:06 25.7 °F 5 °F 29.9 in ENE 13 mph 19.5 mph 41% 0 in
20:11 25.5 °F 5 °F 29.9 in ENE 10.1 mph 19.5 mph 41% 0 in
20:16 25.5 °F 5 °F 29.9 in East 12.3 mph 17 mph 42% 0 in
20:21 25.3 °F 5 °F 29.9 in NE 10.3 mph 17 mph 42% 0 in
20:26 25.2 °F 5 °F 29.9 in NE 10.3 mph 15.4 mph 43% 0 in
20:31 25 °F 5 °F 29.8 in NE 13 mph 18.1 mph 43% 0 in
20:36 24.8 °F 5 °F 29.8 in ENE 11 mph 18.1 mph 44% 0 in
20:41 24.6 °F 5 °F 29.8 in ENE 6.9 mph 15.4 mph 44% 0 in
20:46 24.6 °F 5 °F 29.9 in NE 17.2 mph 17.2 mph 44% 0 in
20:51 24.4 °F 5 °F 29.9 in ENE 7.8 mph 17.2 mph 45% 0 in
20:57 24.4 °F 5 °F 29.9 in East 7.8 mph 15.7 mph 45% 0 in
21:02 24.3 °F 5 °F 29.8 in ENE 8.7 mph 15.2 mph 45% 0 in
21:07 24.1 °F 5 °F 29.8 in ENE 11 mph 13.6 mph 45% 0 in
21:12 24.1 °F 5 °F 29.8 in ENE 12.3 mph 13.6 mph 45% 0 in
21:17 23.9 °F 5 °F 29.8 in East 12.8 mph 13.2 mph 45% 0 in
21:22 23.9 °F 5 °F 29.8 in ENE 10.7 mph 13.4 mph 45% 0 in
21:27 23.7 °F 5 °F 29.8 in ENE 8.5 mph 13.4 mph 46% 0 in
21:32 23.7 °F 5 °F 29.9 in ENE 8.5 mph 12.8 mph 46% 0 in
21:37 23.5 °F 5 °F 29.9 in ENE 7.4 mph 13.2 mph 46% 0 in
21:42 23.5 °F 5 °F 29.9 in ENE 7.6 mph 14.8 mph 46% 0 in
21:47 23.5 °F 5 °F 29.8 in East 10.3 mph 14.8 mph 46% 0 in
21:52 23.5 °F 5 °F 29.8 in NE 8.5 mph 13.2 mph 46% 0 in
21:57 23.5 °F 5 °F 29.8 in ENE 8.5 mph 13.4 mph 46% 0 in
22:02 23.4 °F 5 °F 29.8 in ENE 11 mph 15.4 mph 46% 0 in
22:07 23.4 °F 5 °F 29.8 in East 11.2 mph 15.4 mph 46% 0 in
22:12 23.4 °F 5 °F 29.8 in ENE 6.7 mph 13.9 mph 46% 0 in
22:17 23.2 °F 5 °F 29.8 in NE 9.8 mph 15.4 mph 46% 0 in
22:22 23.2 °F 5 °F 29.8 in East 10.1 mph 15.4 mph 46% 0 in
22:27 23.2 °F 5 °F 29.8 in NNE 10.3 mph 15.7 mph 46% 0 in
22:32 23 °F 5 °F 29.8 in East 9.8 mph 16.8 mph 47% 0 in
22:37 23 °F 5 °F 29.8 in East 10.1 mph 16.8 mph 47% 0 in
22:43 23 °F 5 °F 29.8 in East 13.2 mph 16.1 mph 47% 0 in
22:48 22.8 °F 5 °F 29.8 in ENE 10.1 mph 15.2 mph 47% 0 in
22:53 22.8 °F 5 °F 29.8 in NE 15.2 mph 15.2 mph 47% 0 in
22:58 22.8 °F 5 °F 29.8 in East 17.2 mph 17.2 mph 47% 0 in
23:03 22.8 °F 5 °F 29.8 in East 10.7 mph 17.2 mph 47% 0 in
23:08 22.8 °F 5 °F 29.8 in East 13.4 mph 17.2 mph 47% 0 in
23:13 22.8 °F 5 °F 29.8 in East 5.6 mph 17.2 mph 47% 0 in
23:18 22.8 °F 5 °F 29.8 in ESE 8.7 mph 17.2 mph 47% 0 in
23:23 22.8 °F 5 °F 29.8 in ENE 9.6 mph 17.2 mph 47% 0 in
23:28 22.6 °F 5 °F 29.8 in NE 11 mph 16.8 mph 47% 0 in
23:33 22.6 °F 5 °F 29.8 in ENE 12.5 mph 16.8 mph 47% 0 in
23:38 22.6 °F 5 °F 29.8 in ENE 9.4 mph 19.2 mph 47% 0 in
23:43 22.6 °F 5 °F 29.8 in ENE 10.5 mph 19.2 mph 47% 0 in
23:48 22.6 °F 5 °F 29.8 in ENE 12.8 mph 22.8 mph 47% 0 in
23:53 22.6 °F 5 °F 29.8 in ENE 15.4 mph 22.8 mph 47% 0 in
23:58 22.6 °F 5 °F 29.8 in East 10.1 mph 19.9 mph 47% 0 in
Données Historique de Météo Turbie

Mise a jour : 18/06/2018 00:15:12
Généré par Cumulus 1.9.4 (1099)